GW4109 Weather Reports


time (UTC)temp
C
wind
direction
speed
KPH
gust
KPH
rain 1hr
cm
rain 24hr
cm
rain mn
cm
humidity
%
barometer
mb
20260506080442 13 106 3.2 4.8 0.00 0.00 0.00 55 1018.3
20260506073426 15 178 3.2 3.2 0.00 0.00 0.00 53 1018.5
20260506072923 15 269 0.0 3.2 0.00 0.00 0.00 52 1018.4
20260506072420 15 116 0.0 3.2 0.00 0.00 0.00 52 1018.5
20260506071917 15 235 1.6 4.8 0.00 0.00 0.00 51 1018.5
20260506071416 15 294 3.2 3.2 0.00 0.00 0.00 51 1018.7
20260506070912 15 202 3.2 4.8 0.00 0.00 0.00 52 1018.4
20260506070409 15 162 0.0 3.2 0.00 0.00 0.00 52 1018.7
20260506062347 17 330 4.8 17.7 0.00 0.00 0.00 48 1018.0
20260506061843 17 269 6.4 9.7 0.00 0.00 0.00 48 1017.9
20260506061339 17 344 3.2 12.9 0.00 0.00 0.00 48 1018.1
20260506060838 17 257 8.0 9.7 0.00 0.00 0.00 47 1018.0
20260506060335 17 249 8.0 11.3 0.00 0.00 0.00 47 1018.0
20260506051307 16 286 4.8 16.1 0.00 0.00 0.00 47 1018.1
20260506050805 17 247 11.3 20.9 0.00 0.00 0.00 45 1017.7
20260506050302 17 240 11.3 11.3 0.00 0.00 0.00 46 1017.9
20260506044752 17 112 0.0 4.8 0.00 0.00 0.00 45 1017.6
20260506044250 17 133 1.6 4.8 0.00 0.00 0.00 45 1017.7
20260506043747 17 242 3.2 9.7 0.00 0.00 0.00 45 1017.4
20260506043244 17 128 0.0 6.4 0.00 0.00 0.00 45 1017.2
20260506042743 17 260 3.2 9.7 0.00 0.00 0.00 44 1017.4
20260506042242 18 252 4.8 11.3 0.00 0.00 0.00 43 1017.3
20260506041740 17 288 3.2 14.5 0.00 0.00 0.00 44 1017.2
20260506041236 17 253 4.8 6.4 0.00 0.00 0.00 44 1017.2
20260506040734 17 266 11.3 14.5 0.00 0.00 0.00 44 1017.0
20260506040231 18 268 6.4 11.3 0.00 0.00 0.00 43 1016.9
20260506035727 17 235 11.3 17.7 0.00 0.00 0.00 44 1016.9
20260506035224 18 248 3.2 12.9 0.00 0.00 0.00 43 1016.7
20260506034721 18 245 9.7 12.9 0.00 0.00 0.00 43 1016.7
20260506034218 18 231 4.8 12.9 0.00 0.00 0.00 43 1016.7
20260506033716 18 273 8.0 16.1 0.00 0.00 0.00 43 1016.3
20260506033212 18 256 8.0 17.7 0.00 0.00 0.00 43 1016.3
20260506032709 18 235 6.4 12.9 0.00 0.00 0.00 43 1016.1
20260506032206 18 232 8.0 22.5 0.00 0.00 0.00 43 1016.5
20260506031703 18 279 9.7 25.7 0.00 0.00 0.00 43 1016.2
20260506031200 17 244 4.8 14.5 0.00 0.00 0.00 44 1016.2
20260506030659 18 243 17.7 25.7 0.00 0.00 0.00 43 1016.0
20260506030155 17 248 17.7 25.7 0.00 0.00 0.00 44 1015.8
20260506025652 18 236 6.4 22.5 0.00 0.00 0.00 44 1015.8
20260506025148 18 275 6.4 30.6 0.00 0.00 0.00 43 1015.6
20260506024645 18 229 14.5 19.3 0.00 0.00 0.00 44 1015.9
20260506024141 18 235 27.4 30.6 0.00 0.00 0.00 43 1015.5
20260506023638 18 275 8.0 24.1 0.00 0.00 0.00 43 1015.7
20260506023135 18 292 11.3 25.7 0.00 0.00 0.00 42 1015.4
20260506022632 18 246 17.7 29.0 0.00 0.00 0.00 42 1015.4
20260506022130 18 261 14.5 20.9 0.00 0.00 0.00 42 1015.4
20260506021628 18 257 12.9 27.4 0.00 0.00 0.00 40 1015.2
20260506021125 18 317 8.0 22.5 0.00 0.00 0.00 41 1015.1
20260506020622 18 313 9.7 29.0 0.00 0.00 0.00 40 1015.1
20260506020119 18 319 17.7 30.6 0.00 0.00 0.00 40 1014.9
20260506015617 19 315 14.5 33.8 0.00 0.00 0.00 39 1014.9
20260506015113 19 307 6.4 27.4 0.00 0.00 0.00 39 1014.8
20260506014611 19 295 14.5 38.6 0.00 0.00 0.00 38 1014.6
20260506014106 19 295 12.9 30.6 0.00 0.00 0.00 38 1014.7
20260506013605 20 305 14.5 45.1 0.00 0.00 0.00 37 1014.5
20260506013101 19 263 14.5 20.9 0.00 0.00 0.00 37 1014.7
20260506012557 20 297 16.1 25.7 0.00 0.00 0.00 36 1014.6
20260506012054 20 315 17.7 25.7 0.00 0.00 0.00 36 1014.7
20260506011552 21 245 20.9 30.6 0.00 0.00 0.00 34 1014.5
20260506011048 21 286 9.7 19.3 0.00 0.00 0.00 33 1014.7
20260506010547 21 335 12.9 30.6 0.00 0.00 0.00 33 1014.5
20260506010044 21 347 6.4 37.0 0.00 0.00 0.00 33 1014.7
20260506005541 21 246 12.9 14.5 0.00 0.00 0.00 32 1014.7
20260506005037 22 274 8.0 14.5 0.00 0.00 0.00 32 1014.6
20260506004534 22 329 8.0 9.7 0.00 0.00 0.00 32 1014.6
20260506004031 22 314 0.0 4.8 0.00 0.00 0.00 32 1014.5
20260506003527 21 233 8.0 20.9 0.00 0.00 0.00 34 1014.7
20260506003023 21 225 9.7 32.2 0.00 0.00 0.00 34 1014.8
20260506002520 21 234 41.8 49.9 0.00 0.00 0.00 34 1014.8
20260506002015 21 231 30.6 37.0 0.00 0.00 0.00 33 1014.8
20260506001512 20 235 9.7 43.5 0.00 0.00 0.00 34 1015.1
20260506001009 21 242 11.3 30.6 0.00 0.00 0.00 35 1014.9
20260506000507 21 207 11.3 38.6 0.00 0.00 0.00 34 1014.9
20260506000003 21 213 22.5 41.8 0.00 0.00 0.00 34 1015.1
20260505235502 21 227 11.3 37.0 0.00 0.00 0.00 34 1014.9
20260505234958 21 225 27.4 30.6 0.00 0.00 0.00 34 1015.2
20260505234455 21 215 16.1 29.0 0.00 0.00 0.00 34 1015.1
20260505233952 21 254 12.9 37.0 0.00 0.00 0.00 33 1015.4
20260505233450 21 241 17.7 20.9 0.00 0.00 0.00 32 1015.4
20260505232947 22 222 22.5 29.0 0.00 0.00 0.00 32 1015.3
20260505232445 22 232 22.5 29.0 0.00 0.00 0.00 32 1015.3
20260505231942 21 234 25.7 27.4 0.00 0.00 0.00 33 1015.5
20260505231439 22 239 20.9 25.7 0.00 0.00 0.00 31 1015.5
20260505230937 22 240 3.2 35.4 0.00 0.00 0.00 31 1015.3
20260505230435 22 232 14.5 32.2 0.00 0.00 0.00 32 1015.5
20260505225931 22 242 19.3 32.2 0.00 0.00 0.00 31 1015.5
20260505225428 22 242 17.7 32.2 0.00 0.00 0.00 30 1015.6
20260505224923 22 218 12.9 32.2 0.00 0.00 0.00 30 1015.6
20260505224421 21 253 22.5 35.4 0.00 0.00 0.00 31 1015.8
20260505223918 22 235 16.1 16.1 0.00 0.00 0.00 30 1016.0
20260505223415 22 227 22.5 25.7 0.00 0.00 0.00 29 1015.9
20260505222911 23 232 30.6 33.8 0.00 0.00 0.00 29 1015.8
20260505222407 21 249 12.9 24.1 0.00 0.00 0.00 32 1015.9
20260505221904 22 246 6.4 33.8 0.00 0.00 0.00 31 1016.1
20260505221401 22 183 1.6 8.0 0.00 0.00 0.00 31 1016.1
20260505220858 23 327 11.3 25.7 0.00 0.00 0.00 30 1016.1
20260505220355 21 345 4.8 20.9 0.00 0.00 0.00 32 1016.5
20260505215852 22 232 14.5 24.1 0.00 0.00 0.00 31 1016.3
20260505215351 21 309 12.9 27.4 0.00 0.00 0.00 31 1016.2
20260505214848 23 249 4.8 22.5 0.00 0.00 0.00 30 1016.6
20260505214346 22 172 1.6 12.9 0.00 0.00 0.00 31 1016.5
20260505213843 21 247 9.7 22.5 0.00 0.00 0.00 33 1016.6
20260505213341 21 253 9.7 37.0 0.00 0.00 0.00 31 1016.6
20260505212836 21 255 6.4 17.7 0.00 0.00 0.00 31 1016.8
20260505212333 21 252 8.0 17.7 0.00 0.00 0.00 32 1016.8
20260505211829 21 329 19.3 27.4 0.00 0.00 0.00 32 1016.8
20260505211327 22 264 8.0 24.1 0.00 0.00 0.00 32 1016.7
20260505210824 22 354 9.7 19.3 0.00 0.00 0.00 32 1016.7
20260505210320 21 330 9.7 19.3 0.00 0.00 0.00 35 1016.8
20260505205817 21 257 12.9 22.5 0.00 0.00 0.00 33 1016.9
20260505205316 21 333 6.4 9.7 0.00 0.00 0.00 33 1016.8
20260505204812 21 289 4.8 17.7 0.00 0.00 0.00 34 1017.0
20260505204310 22 134 0.0 24.1 0.00 0.00 0.00 31 1016.8
20260505203807 21 320 19.3 24.1 0.00 0.00 0.00 34 1016.8
20260505203304 21 310 6.4 17.7 0.00 0.00 0.00 34 1016.8
20260505202800 21 332 8.0 20.9 0.00 0.00 0.00 34 1016.7
20260505202256 21 330 8.0 16.1 0.00 0.00 0.00 35 1016.9
20260505201753 22 24 1.6 12.9 0.00 0.00 0.00 35 1016.8
20260505201250 21 80 6.4 11.3 0.00 0.00 0.00 35 1016.9
20260505200749 20 249 9.7 11.3 0.00 0.00 0.00 38 1017.0
20260505200245 20 312 8.0 20.9 0.00 0.00 0.00 37 1017.0
20260505195740 21 342 4.8 20.9 0.00 0.00 0.00 36 1017.1
20260505195239 20 253 11.3 25.7 0.00 0.00 0.00 37 1017.1
20260505194735 21 312 19.3 33.8 0.00 0.00 0.00 37 1017.2
20260505194232 20 309 16.1 27.4 0.00 0.00 0.00 40 1017.3
20260505193728 20 302 9.7 16.1 0.00 0.00 0.00 40 1017.4
20260505193225 20 312 20.9 24.1 0.00 0.00 0.00 40 1017.4
20260505192724 20 248 8.0 24.1 0.00 0.00 0.00 37 1017.4
20260505192221 20 310 9.7 20.9 0.00 0.00 0.00 39 1017.6
20260505191719 20 35 3.2 14.5 0.00 0.00 0.00 40 1017.2
20260505191218 19 68 4.8 12.9 0.00 0.00 0.00 41 1017.7
20260505190713 20 257 12.9 14.5 0.00 0.00 0.00 41 1017.7
20260505190213 20 349 3.2 16.1 0.00 0.00 0.00 40 1017.6
20260505185710 18 56 1.6 20.9 0.00 0.00 0.00 42 1017.6
20260505185206 19 236 6.4 25.7 0.00 0.00 0.00 42 1017.4
20260505184702 20 146 3.2 9.7 0.00 0.00 0.00 41 1017.5
20260505184200 20 303 4.8 8.0 0.00 0.00 0.00 41 1017.6
20260505183656 20 359 3.2 14.5 0.00 0.00 0.00 41 1017.7
20260505183154 20 311 8.0 16.1 0.00 0.00 0.00 41 1017.5
20260505182650 19 317 14.5 22.5 0.00 0.00 0.00 43 1017.6
20260505182148 19 357 6.4 29.0 0.00 0.00 0.00 43 1017.4
20260505181643 18 321 12.9 27.4 0.00 0.00 0.00 43 1017.5
20260505181141 19 323 17.7 19.3 0.00 0.00 0.00 42 1017.4
20260505180637 19 322 20.9 22.5 0.00 0.00 0.00 42 1017.2
20260505180135 20 55 4.8 14.5 0.00 0.00 0.00 42 1017.2
20260505175631 19 23 4.8 20.9 0.00 0.00 0.00 42 1017.0
20260505175127 20 357 4.8 12.9 0.00 0.00 0.00 42 1017.1
20260505174624 20 339 3.2 8.0 0.00 0.00 0.00 42 1017.1
20260505174120 18 250 4.8 29.0 0.00 0.00 0.00 44 1017.0
20260505173617 20 356 8.0 11.3 0.00 0.00 0.00 43 1017.0
20260505173114 20 44 4.8 8.0 0.00 0.00 0.00 43 1016.8
20260505172611 20 345 9.7 17.7 0.00 0.00 0.00 43 1016.7
20260505172108 20 53 3.2 9.7 0.00 0.00 0.00 43 1016.8
20260505171602 20 345 8.0 11.3 0.00 0.00 0.00 44 1016.6
20260505171100 20 19 3.2 17.7 0.00 0.00 0.00 43 1016.6
20260505170556 19 337 6.4 11.3 0.00 0.00 0.00 45 1016.5
20260505170053 19 0 6.4 12.9 0.00 0.00 0.00 45 1016.6
20260505165548 19 343 4.8 14.5 0.00 0.00 0.00 45 1016.5
20260505165044 20 329 11.3 14.5 0.00 0.00 0.00 45 1016.6
20260505164540 20 4 4.8 12.9 0.00 0.00 0.00 44 1016.6
20260505164038 20 17 6.4 12.9 0.00 0.00 0.00 44 1016.3
20260505163537 20 24 6.4 11.3 0.00 0.00 0.00 43 1016.3
20260505163033 20 50 6.4 9.7 0.00 0.00 0.00 43 1016.2
20260505162526 20 125 0.0 4.8 0.00 0.00 0.00 41 1016.5
20260505162023 20 66 3.2 11.3 0.00 0.00 0.00 44 1016.2
20260505161520 20 348 4.8 12.9 0.00 0.00 0.00 45 1016.1
20260505161017 20 300 0.0 6.4 0.00 0.00 0.00 43 1016.3
20260505160515 19 114 0.0 9.7 0.00 0.00 0.00 44 1016.3
20260505152951 17 287 3.2 11.3 0.00 0.00 0.00 48 1016.0
20260505152449 18 262 6.4 12.9 0.00 0.00 0.00 47 1016.1
20260505151943 18 268 11.3 14.5 0.00 0.00 0.00 47 1015.9
20260505151439 18 216 4.8 6.4 0.00 0.00 0.00 45 1015.9
20260505150937 18 212 0.0 3.2 0.00 0.00 0.00 47 1015.7
20260505150433 18 266 4.8 11.3 0.00 0.00 0.00 46 1015.9
20260505140403 18 44 0.0 3.2 0.00 0.00 0.00 49 1015.6
20260505124817 13 156 1.6 3.2 0.00 0.00 0.00 62 1015.0
20260505124314 13 177 1.6 4.8 0.00 0.00 0.00 62 1015.0
20260505123810 13 153 3.2 3.2 0.00 0.00 0.00 62 1014.8
20260505123307 13 165 4.8 4.8 0.00 0.00 0.00 64 1014.9
20260505122802 12 134 3.2 6.4 0.00 0.00 0.00 65 1014.8
20260505122300 12 322 0.0 1.6 0.00 0.00 0.00 64 1014.8
20260505121756 12 100 0.0 1.6 0.00 0.00 0.00 64 1014.7
20260505121253 12 118 0.0 3.2 0.00 0.00 0.00 63 1014.8
20260505120750 13 254 1.6 6.4 0.00 0.00 0.00 62 1014.8
20260505120246 13 88 4.8 8.0 0.00 0.00 0.00 61 1014.8
20260505115744 13 92 3.2 8.0 0.00 0.00 0.00 61 1014.8
20260505115242 13 87 4.8 8.0 0.00 0.00 0.00 61 1014.8
20260505114740 13 98 4.8 6.4 0.00 0.00 0.00 61 1015.0
20260505114236 13 143 0.0 4.8 0.00 0.00 0.00 62 1015.0
20260505113733 13 53 3.2 4.8 0.00 0.00 0.00 61 1015.2
20260505113230 13 79 1.6 4.8 0.00 0.00 0.00 61 1015.1
20260505112726 15 148 0.0 3.2 0.00 0.00 0.00 60 1015.5
20260505112224 15 89 0.0 3.2 0.00 0.00 0.00 59 1015.1
20260505111723 15 115 1.6 3.2 0.00 0.00 0.00 59 1015.1
20260505111219 15 191 3.2 4.8 0.00 0.00 0.00 58 1015.3
20260505110715 15 237 3.2 4.8 0.00 0.00 0.00 58 1015.2
20260505110213 15 230 3.2 8.0 0.00 0.00 0.00 57 1015.4
20260505102148 15 93 3.2 4.8 0.00 0.00 0.00 57 1015.3
20260505101647 15 99 4.8 9.7 0.00 0.00 0.00 56 1015.2
20260505101143 15 87 9.7 9.7 0.00 0.00 0.00 56 1015.3
20260505100639 15 100 4.8 8.0 0.00 0.00 0.00 56 1015.2
20260505100136 15 93 3.2 6.4 0.00 0.00 0.00 57 1015.5
20260505095632 15 89 8.0 9.7 0.00 0.00 0.00 56 1015.2
20260505095129 15 92 9.7 9.7 0.00 0.00 0.00 55 1015.4
20260505094625 15 52 3.2 4.8 0.00 0.00 0.00 54 1015.4
20260505094122 15 231 8.0 8.0 0.00 0.00 0.00 53 1015.3
20260505093618 15 217 3.2 6.4 0.00 0.00 0.00 54 1015.3
20260505093115 15 252 4.8 4.8 0.00 0.00 0.00 54 1015.4
20260505092612 15 271 3.2 8.0 0.00 0.00 0.00 53 1015.2
20260505092111 16 348 4.8 9.7 0.00 0.00 0.00 52 1015.4
20260505091607 16 314 3.2 6.4 0.00 0.00 0.00 52 1015.4
20260505091106 16 318 9.7 9.7 0.00 0.00 0.00 52 1015.8
20260505090603 16 327 4.8 8.0 0.00 0.00 0.00 53 1015.8
20260505090101 16 256 1.6 9.7 0.00 0.00 0.00 52 1015.9
20260505085558 16 275 4.8 12.9 0.00 0.00 0.00 52 1015.8
20260505085057 15 236 6.4 6.4 0.00 0.00 0.00 53 1016.1
20260505084554 15 356 3.2 6.4 0.00 0.00 0.00 53 1016.0
20260505084052 16 275 0.0 4.8 0.00 0.00 0.00 52 1016.1
20260505083549 16 328 6.4 12.9 0.00 0.00 0.00 51 1016.1
20260505083046 16 311 4.8 9.7 0.00 0.00 0.00 51 1016.2
20260505082541 16 328 9.7 14.5 0.00 0.00 0.00 51 1016.3
20260505082039 16 281 8.0 25.7 0.00 0.00 0.00 50 1016.5
20260505081535 16 317 3.2 14.5 0.00 0.00 0.00 50 1016.5
20260505081032 16 10 3.2 8.0 0.00 0.00 0.00 51 1016.6